Wind_Speed
33 31 31 30 29 28 28 28 28 28 28 28 26 24 26 25 23 22 21 20 20 20 17 16 14 13 13 12 11 11 11 11 11 10 9 7 5 4 4 4 4 5 6 7 8 8 10 11 11 11 11 11 10 10 10 10 9 9 8 8 9 9 9 9 10 9 8 8 9 9 9 9 9 9 8 9 11 12 13 14 15 15 16 16 17
30 29 29 28 28 27 28 29 29 29 29 28 26 25 27 26 23 22 21 21 20 18 16 15 14 13 13 13 12 12 12 12 11 10 8 6 5 5 4 4 5 6 7 8 10 11 12 13 14 13 12 12 11 11 10 9 9 8 9 9 10 10 11 11 11 9 8 8 9 8 8 8 8 8 7 10 11 12 13 14 15 15 16 16 16
27 28 28 27 27 28 29 30 29 29 29 27 26 25 27 25 23 22 20 19 18 17 16 15 14 15 14 13 13 13 13 12 11 10 8 6 6 6 6 6 7 8 9 11 12 13 14 14 14 13 12 12 11 10 9 8 8 8 9 10 11 12 13 13 13 13 11 10 7 5 6 6 4 4 7 9 10 12 13 15 16 16 16 16 16
27 27 27 27 27 29 31 31 30 29 27 26 26 26 26 24 23 22 20 19 18 17 17 17 17 16 15 14 13 13 12 12 11 9 8 8 7 7 8 8 9 10 12 13 14 14 15 14 13 12 12 11 9 8 7 7 8 9 10 11 12 13 14 14 14 14 12 10 7 4 3 2 3 6 7 7 9 11 14 16 17 17 16 17 17
29 29 29 28 29 30 31 31 30 29 28 26 25 25 24 23 23 21 20 19 18 18 19 20 20 18 17 16 14 13 12 11 10 9 9 10 9 8 9 9 10 12 13 15 16 15 14 13 12 11 10 8 6 6 6 7 8 9 10 11 12 13 14 14 12 11 10 9 9 8 6 5 7 11 10 8 7 9 14 17 16 16 17 17 18
29 30 31 32 31 31 31 31 31 29 28 26 23 22 22 22 21 21 20 19 18 20 21 22 21 19 19 18 15 14 13 12 10 10 11 11 9 9 9 11 13 14 15 15 14 13 12 10 9 8 7 6 5 6 7 8 9 10 11 12 12 13 13 12 10 9 9 9 11 11 10 9 12 14 12 11 8 8 12 16 17 17 17 17 18
28 28 30 32 32 32 32 31 31 29 27 25 22 20 21 21 20 20 21 20 19 21 22 21 19 18 19 17 15 14 13 12 11 12 12 10 9 9 11 12 14 15 15 12 9 8 8 7 6 5 5 5 6 7 8 9 10 11 11 12 12 11 10 9 9 10 10 11 13 13 13 13 14 15 16 16 13 10 11 15 18 18 18 19 19
28 29 29 32 33 33 33 32 31 29 27 26 22 20 20 20 19 20 21 20 20 22 22 20 18 17 17 16 15 14 12 12 11 11 10 9 10 11 12 13 14 14 11 7 5 5 5 4 4 4 5 5 6 7 9 10 11 11 10 10 9 8 8 8 9 10 11 12 13 13 14 14 14 15 16 16 17 16 16 17 20 19 20 21 20
29 29 29 31 34 34 34 32 31 29 28 27 24 21 20 21 20 21 22 20 20 22 21 18 17 16 16 15 15 14 13 12 11 10 9 9 11 11 12 13 13 12 8 4 3 3 3 3 4 4 5 6 7 9 10 10 10 9 8 8 7 7 8 9 9 11 12 12 12 13 13 13 13 13 14 15 17 19 20 22 23 21 21 22 21
30 30 29 30 34 35 34 32 31 29 29 29 25 21 21 22 23 23 23 21 21 22 20 19 18 16 16 15 14 13 13 12 10 10 10 10 11 11 12 13 12 9 5 3 2 2 3 3 4 4 5 6 8 9 10 9 8 8 7 8 8 8 9 10 10 11 11 11 11 11 12 11 11 12 13 16 18 18 20 22 24 23 22 22 21
31 31 31 30 32 34 34 33 31 30 30 30 26 23 23 24 24 23 22 21 21 20 20 20 19 17 15 15 13 12 12 11 9 10 11 10 11 11 12 12 10 6 4 3 2 2 2 3 3 4 5 7 8 8 8 8 7 8 8 9 9 9 9 10 11 10 10 11 11 11 13 14 14 15 17 18 19 20 20 21 22 23 22 22 21
30 32 33 32 32 33 35 34 32 30 30 30 27 25 25 25 24 22 20 21 22 21 19 20 19 17 15 14 12 11 10 9 9 11 11 10 11 11 12 10 7 5 5 4 3 2 2 2 3 4 6 7 7 8 7 7 8 8 9 9 9 9 11 11 10 10 10 11 12 13 15 15 15 16 18 18 19 20 20 21 22 23 23 23 21
31 33 35 35 33 32 33 34 32 30 29 29 28 27 26 25 24 22 20 22 22 21 20 20 18 17 15 13 12 11 10 10 11 11 10 10 11 11 10 8 5 5 5 5 4 3 1 1 3 5 5 6 7 7 7 7 8 9 9 9 9 10 11 11 11 11 11 12 14 14 14 15 15 16 17 17 18 19 20 21 22 23 23 23 22
33 34 36 36 36 34 33 32 31 30 28 28 29 28 26 25 24 22 21 23 23 21 21 19 17 15 14 13 12 12 11 11 12 11 10 11 11 10 8 6 4 5 5 5 4 2 0 1 3 4 5 6 6 6 6 7 8 8 8 8 9 10 11 11 12 12 12 13 13 14 14 14 15 15 16 17 18 19 21 22 23 24 24 25 25
33 34 36 36 37 36 35 33 32 31 30 30 30 29 26 25 24 22 21 23 22 21 20 18 16 16 14 13 13 13 12 12 12 11 11 11 10 7 6 4 3 5 5 5 4 2 0 1 3 4 5 5 5 5 6 6 7 7 8 8 9 10 11 11 12 12 12 13 13 13 14 14 15 15 16 18 19 20 21 22 24 26 26 27 27
33 34 35 36 35 36 37 37 34 32 31 31 31 29 27 27 25 22 21 21 20 21 20 19 17 16 15 15 15 14 13 13 12 12 11 10 8 6 5 3 4 5 6 5 4 2 0 1 3 4 4 4 4 4 5 5 7 7 8 9 10 10 10 10 11 11 11 12 12 13 13 14 15 15 16 17 18 19 20 22 24 26 27 27 28
33 35 35 35 35 35 37 38 37 34 31 32 32 30 28 27 25 22 21 21 21 21 21 19 18 17 17 17 16 14 14 14 13 12 11 10 8 6 4 4 5 6 6 5 3 2 1 1 2 3 2 3 3 4 5 6 7 7 8 9 10 10 9 10 10 10 10 11 12 12 13 13 14 15 16 17 18 19 21 23 24 25 25 25 26
32 34 35 36 36 36 37 37 36 34 32 33 33 30 27 26 24 23 23 23 23 22 21 20 20 20 19 17 15 15 15 14 13 12 11 9 8 6 5 5 6 6 6 4 3 2 2 1 1 1 1 2 3 4 5 6 6 7 8 8 10 10 9 8 9 8 10 11 11 12 12 12 13 14 15 17 18 19 21 22 23 23 23 23 23
31 33 35 37 38 37 37 38 35 31 31 32 31 29 26 24 23 22 23 24 23 22 22 22 22 21 18 17 16 17 16 15 13 12 11 9 8 8 6 5 6 7 6 4 3 3 2 1 1 1 1 2 3 4 5 6 6 6 7 8 9 8 7 7 8 9 10 10 10 10 10 11 13 14 15 16 18 19 21 21 22 22 22 22 22
33 32 33 37 39 37 36 36 34 30 31 32 30 28 26 24 23 23 24 24 22 22 22 22 21 19 18 18 18 17 16 15 14 13 11 10 9 8 6 6 7 8 6 5 4 3 2 2 2 2 3 3 3 4 5 5 6 6 7 7 7 7 6 7 8 9 9 9 8 9 10 11 13 14 15 17 18 19 21 22 23 24 23 23 24
35 35 33 34 39 39 36 35 33 31 32 32 29 26 25 25 26 25 25 24 23 22 22 21 20 20 20 20 18 17 16 15 14 13 12 11 10 9 7 7 8 9 7 6 5 4 4 3 4 4 4 3 3 4 5 5 6 6 6 6 6 6 6 8 8 8 8 8 9 10 10 12 13 15 16 17 18 19 21 23 24 25 25 25 26
36 37 35 33 37 39 38 37 36 32 31 31 29 26 25 27 28 27 25 23 21 21 22 22 22 22 21 19 17 17 16 15 14 13 12 11 11 10 8 8 9 9 8 6 5 5 5 5 5 4 4 4 4 4 4 5 5 6 5 5 5 6 7 8 7 7 8 9 9 10 11 13 14 15 16 17 18 20 22 24 25 27 28 27 28
34 37 37 34 35 37 38 39 37 32 29 30 29 27 26 28 29 27 24 22 20 20 21 21 20 19 17 16 16 16 16 15 14 13 12 12 12 10 9 9 10 9 8 7 6 6 6 6 6 5 4 4 3 3 3 4 4 5 5 4 5 5 6 6 5 6 8 9 10 10 12 14 15 15 16 17 19 21 23 25 27 28 29 29 29
32 35 37 36 36 37 39 40 38 33 30 29 29 28 28 30 29 27 23 21 21 20 19 19 17 16 16 17 17 16 16 15 14 14 13 13 12 11 10 11 11 8 7 7 7 7 7 7 6 5 4 4 3 2 3 3 3 4 5 5 5 4 4 4 5 6 8 9 10 12 13 14 14 15 17 18 20 22 24 26 28 28 29 30 29
33 35 37 38 37 37 39 39 36 33 32 32 31 29 29 31 30 26 22 21 21 20 19 19 18 17 18 18 17 17 16 15 15 15 14 14 12 11 12 12 10 8 7 8 9 9 8 7 6 5 4 3 3 2 2 2 3 4 5 5 4 3 3 3 5 6 8 10 11 12 13 14 15 16 18 20 22 24 26 27 28 29 29 30 30
34 36 38 39 38 38 37 35 33 32 34 36 34 29 30 33 29 24 22 21 21 22 21 20 19 18 19 18 18 17 16 16 16 16 15 14 13 13 13 12 9 8 8 9 10 9 8 7 6 6 5 3 3 2 2 2 2 3 4 5 3 2 3 4 5 6 9 11 12 13 13 14 16 17 19 22 24 25 27 28 29 29 30 30 30
35 37 38 39 39 39 36 33 33 34 36 38 33 28 31 33 28 24 24 23 22 23 23 21 20 19 19 18 18 17 17 16 16 16 15 14 14 14 14 12 10 9 9 10 10 10 9 8 7 6 5 4 3 3 2 2 2 3 3 4 3 3 3 4 5 7 9 11 12 13 14 15 16 18 21 23 25 26 27 28 29 29 30 30 31
33 36 38 39 40 40 38 36 37 38 40 40 33 29 33 34 30 27 26 24 24 25 24 22 21 20 19 19 18 17 17 16 16 15 15 15 16 16 14 12 10 10 10 10 10 10 9 8 7 6 6 5 4 3 2 2 2 2 3 3 4 3 4 4 5 7 9 11 12 13 14 15 17 20 21 23 24 25 26 27 28 29 29 30 31
32 35 37 39 40 41 40 39 40 40 39 37 33 31 35 38 36 31 26 25 26 26 25 23 22 21 20 19 19 17 17 17 16 16 17 17 17 16 13 12 11 11 11 12 11 10 9 8 8 7 6 5 4 3 2 2 1 1 2 3 4 4 4 5 5 7 9 11 12 13 14 16 18 19 20 21 23 24 25 27 28 28 29 30 30
35 38 39 40 40 41 41 42 41 39 36 35 33 32 36 41 39 33 28 28 29 27 25 24 23 21 21 20 19 18 17 17 17 18 19 19 18 15 13 12 12 12 12 12 11 11 10 8 8 7 7 6 4 3 3 2 2 1 2 3 4 4 5 5 6 7 9 10 11 12 14 15 17 18 19 21 22 22 23 25 26 27 28 29 30
37 39 40 40 40 41 42 43 41 38 37 38 35 32 37 41 37 31 31 30 28 27 26 25 23 21 21 20 19 19 19 19 19 20 20 19 17 15 13 12 12 13 14 13 12 11 10 9 8 7 7 6 5 4 3 3 2 2 2 3 3 3 4 5 6 7 8 8 9 11 13 15 16 18 19 20 21 21 21 22 23 25 26 27 28
36 38 40 41 41 42 43 42 39 37 39 40 36 33 38 40 34 31 33 31 28 27 27 25 23 22 22 21 20 20 20 20 21 21 20 19 16 14 14 13 13 13 13 13 12 11 11 10 9 8 7 6 5 5 4 4 3 3 2 2 2 2 3 4 5 6 7 7 8 10 12 14 16 17 19 20 20 20 21 22 22 23 24 24 26
38 39 41 42 43 43 43 41 38 39 41 41 38 35 37 38 35 34 35 31 27 27 27 25 24 23 23 23 22 21 21 21 22 22 20 18 16 15 14 14 14 13 13 12 12 12 11 11 10 9 7 7 6 6 5 5 4 3 3 2 2 2 2 3 4 5 6 7 8 9 11 13 15 16 18 19 20 21 21 22 22 22 23 24 24
38 39 40 40 41 40 39 39 39 40 41 41 39 35 33 34 35 36 35 31 26 27 29 28 26 25 25 24 23 22 22 23 23 22 20 18 16 15 14 14 14 13 13 12 12 12 12 11 10 9 8 7 7 7 6 6 5 4 3 3 2 2 1 2 3 4 5 6 7 8 10 12 14 15 16 18 19 21 22 22 23 23 24 24 25
38 39 39 39 38 39 39 39 39 40 40 40 37 33 32 33 34 37 37 32 28 29 31 30 27 27 27 26 24 23 23 24 24 23 21 19 17 15 14 13 13 13 12 12 12 12 12 11 11 10 9 8 8 8 7 6 5 4 3 3 2 2 1 1 2 3 5 6 7 8 9 11 13 15 16 18 19 21 22 23 24 24 25 25 26
41 42 42 42 41 41 40 40 39 39 39 38 35 33 33 34 35 38 38 33 30 32 33 31 29 29 28 27 25 24 25 26 25 24 22 19 17 15 14 13 14 13 13 13 13 13 12 11 11 11 10 9 9 8 8 6 5 4 3 3 3 2 1 0 1 3 4 6 7 7 9 11 12 14 15 17 19 20 22 23 24 25 26 26 26
38 39 39 39 39 39 38 38 38 39 39 37 35 33 34 35 36 39 38 36 35 35 34 32 31 30 29 28 26 25 25 27 26 25 22 19 17 16 15 14 14 14 14 14 13 13 13 12 12 12 11 10 9 9 8 7 6 5 4 3 3 2 2 1 1 2 4 5 6 7 8 10 12 13 15 17 18 20 22 23 25 26 26 27 28
35 36 36 36 36 36 37 37 37 38 38 37 35 34 34 36 38 39 40 39 38 36 34 32 32 32 31 28 26 25 26 27 27 25 22 19 17 16 15 13 13 13 13 14 14 14 14 14 13 13 12 11 10 9 9 8 6 5 4 4 3 3 2 2 1 2 3 4 5 6 8 9 11 13 14 16 18 20 22 23 25 27 27 29 30
34 34 34 35 36 36 36 36 36 37 37 36 35 35 35 37 37 39 41 41 39 37 34 32 32 32 29 24 23 23 24 26 26 24 21 19 17 16 15 13 13 13 14 14 15 15 15 15 15 14 13 12 11 10 9 8 7 7 5 5 4 3 3 2 2 2 2 3 4 6 7 9 11 13 14 16 17 19 22 23 25 27 28 29 30
33 33 32 33 34 36 36 36 36 36 36 36 35 36 36 37 36 37 39 40 38 36 34 32 31 30 25 21 21 21 21 24 25 23 21 20 17 16 15 15 14 15 15 15 15 16 16 16 17 16 15 14 12 11 10 9 9 8 6 5 5 4 3 2 1 1 1 2 4 5 6 8 10 12 14 16 17 19 21 22 24 26 28 29 29
30 31 31 31 33 34 34 35 35 35 36 35 35 36 37 37 37 37 37 38 37 36 34 32 30 28 24 21 21 21 21 24 24 22 21 20 17 16 16 15 15 16 17 16 16 17 17 17 17 17 16 15 14 12 11 10 9 8 7 6 5 4 3 2 1 0 1 2 3 4 6 8 10 12 14 15 16 18 20 21 23 25 26 27 28
28 29 30 31 32 32 33 33 34 35 35 35 35 35 36 37 37 36 35 36 37 36 35 32 30 28 24 22 23 23 23 24 24 22 22 21 18 17 16 15 16 17 18 18 18 18 18 19 18 18 17 16 15 14 12 11 10 8 7 6 5 4 3 2 1 0 1 2 3 4 5 7 9 11 13 15 16 17 18 20 21 23 24 26 27
28 29 30 30 31 32 32 33 33 34 34 34 34 35 36 37 36 35 34 35 36 36 35 32 29 27 25 24 25 24 22 24 24 23 23 22 20 19 18 17 18 19 20 20 19 20 20 20 19 19 18 16 15 14 13 12 11 9 7 6 5 4 3 1 1 1 2 3 3 4 6 7 9 10 12 14 15 17 18 19 20 22 23 25 26
28 29 29 29 30 31 31 32 32 33 34 34 33 34 35 36 36 35 35 35 35 34 34 31 28 27 26 25 25 22 21 23 25 25 24 23 21 20 20 19 20 20 21 21 22 22 22 21 21 20 19 18 16 15 14 13 11 9 8 7 5 4 3 2 2 2 3 4 4 5 6 7 8 10 11 13 15 16 17 18 20 21 23 25 26
27 28 28 29 29 30 30 31 32 33 33 33 32 32 34 34 35 36 36 35 33 32 31 30 28 27 26 25 25 23 22 23 26 26 25 25 23 22 22 22 22 22 23 23 23 23 23 22 22 21 19 18 17 16 15 14 12 10 9 7 6 4 3 2 2 3 4 4 4 5 6 7 8 9 11 12 14 16 17 18 19 20 22 24 26
28 29 29 29 29 28 29 30 31 32 33 32 31 31 31 31 33 35 36 35 32 30 30 29 28 27 26 25 25 25 24 24 26 27 26 25 24 23 23 24 24 24 25 25 25 25 24 24 23 21 20 19 18 17 16 15 13 11 9 8 6 5 4 2 2 3 4 4 4 5 6 7 8 9 10 12 13 15 16 18 19 20 21 24 26
28 28 29 29 29 28 29 29 30 31 32 31 30 30 30 31 33 34 34 34 33 31 29 28 27 27 27 26 26 26 25 26 28 28 27 25 24 24 24 26 26 27 27 28 27 26 26 25 24 22 21 20 18 17 16 15 14 12 10 8 7 5 4 3 3 4 5 5 5 5 6 7 8 9 10 11 12 14 16 17 18 19 20 22 25
26 27 27 28 28 28 28 28 29 29 29 29 28 28 30 31 33 33 33 33 33 32 28 27 26 27 27 26 27 27 25 26 29 30 27 26 25 25 26 26 27 27 28 29 29 28 27 25 23 22 21 20 19 19 17 15 14 12 10 9 7 6 5 4 3 4 5 6 6 6 6 6 7 8 9 11 12 13 15 16 18 19 20 21 23
23 24 25 26 26 26 26 26 26 26 27 28 27 27 28 29 31 32 32 32 32 30 27 26 26 27 27 27 27 27 25 26 29 29 27 25 24 24 25 25 24 25 25 26 26 26 25 23 22 21 20 20 18 16 14 13 12 12 11 9 8 7 6 5 5 5 6 7 7 7 6 6 7 8 9 10 12 13 14 15 17 19 20 22 23
20 22 23 24 24 24 24 24 25 25 25 26 26 27 27 28 29 31 31 31 30 30 28 27 26 26 27 27 27 27 26 27 29 29 27 25 24 24 23 23 22 23 24 24 24 23 21 21 20 20 19 17 14 12 11 12 13 12 11 10 9 8 8 7 7 7 8 9 9 9 8 7 7 8 10 11 12 13 14 15 16 18 20 22 23
18 20 21 22 23 23 23 23 24 24 23 24 25 25 25 25 27 30 31 30 30 30 29 28 26 26 26 27 27 27 27 28 29 29 28 26 26 25 25 23 22 22 23 24 23 22 20 19 19 18 17 15 13 11 12 13 13 12 11 11 10 9 9 10 10 10 10 11 11 11 10 9 8 9 10 11 12 13 14 15 16 18 19 21 23
Wind_Direction
209 211 213 214 213 211 209 207 207 208 207 210 211 207 206 207 206 203 198 197 200 200 200 204 211 213 214 218 224 229 233 232 229 227 225 221 228 244 255 268 271 270 277 285 291 295 298 302 304 302 301 303 308 314 318 322 326 329 334 339 343 344 344 349 1 5 355 342 328 315 302 294 290 289 301 321 327 331 336 337 338 338 336 334 332
211 212 213 214 212 208 207 207 208 210 209 211 212 209 207 206 208 208 203 201 203 204 207 212 217 221 221 223 225 225 224 227 226 223 219 216 230 244 245 254 264 272 282 291 294 296 299 302 303 302 301 304 309 315 320 328 338 345 348 350 347 345 344 347 355 3 360 344 329 311 295 296 292 289 310 327 334 343 349 351 351 352 350 349 348
211 213 211 212 212 207 205 206 208 212 212 211 210 208 207 207 210 211 207 204 207 212 216 220 224 227 227 227 229 226 219 220 223 219 218 223 232 234 232 239 255 273 286 292 294 294 298 300 302 303 304 306 310 318 329 341 350 353 353 351 348 348 348 347 350 355 356 352 341 304 288 300 297 311 330 334 349 2 2 3 4 2 2 1 358
210 212 209 208 209 205 203 205 207 211 212 209 206 206 209 212 212 211 210 211 214 220 223 225 228 229 227 225 228 225 218 217 217 213 220 230 228 226 233 247 267 284 291 294 293 294 296 299 302 303 305 308 315 329 344 351 353 355 353 351 351 350 349 350 352 354 356 358 0 344 332 20 30 1 5 9 9 8 7 8 7 6 6 5 4
210 209 206 205 205 203 202 204 205 207 208 205 204 208 212 214 213 212 213 215 219 225 226 227 230 228 222 216 217 215 211 215 217 213 220 226 225 229 244 264 281 288 291 291 291 291 293 298 301 303 306 311 326 347 355 354 354 354 353 354 354 352 352 354 355 359 8 14 20 23 28 41 17 7 24 38 22 13 14 13 10 9 9 8 6
211 209 206 203 201 200 201 203 204 205 204 201 205 212 212 212 213 213 215 217 221 224 226 229 231 227 221 215 214 215 211 214 218 218 222 224 229 244 262 277 285 288 288 288 288 288 292 297 302 305 309 319 345 359 357 354 352 352 354 357 355 355 359 357 357 9 18 22 24 26 30 26 15 12 18 24 29 31 24 20 16 13 13 12 9
209 210 206 202 200 199 201 204 206 207 203 202 209 213 210 211 214 215 218 218 219 223 226 228 226 222 222 220 221 224 220 217 218 221 225 230 239 257 273 281 287 289 286 285 287 292 297 303 308 313 320 337 359 1 356 353 353 355 358 360 359 3 6 4 12 20 18 20 23 23 23 20 16 13 11 13 16 17 20 25 25 19 14 13 12
207 207 205 204 202 202 205 207 209 209 204 204 211 212 211 212 214 218 221 218 218 223 224 223 220 216 218 220 220 222 221 221 224 226 231 240 250 264 275 281 289 291 287 284 289 298 304 313 317 322 332 349 1 358 354 355 356 359 2 6 10 15 19 19 27 29 22 23 26 23 20 17 13 11 11 11 8 4 4 12 23 27 21 16 14
210 207 205 205 204 204 208 209 210 210 206 208 212 214 213 212 213 217 223 223 220 221 219 216 216 214 214 217 216 213 215 219 226 235 243 252 261 269 276 283 292 295 287 276 281 296 305 315 320 327 341 354 359 355 354 357 358 3 11 21 26 30 32 31 32 32 29 30 29 24 22 20 16 12 11 13 10 7 3 1 7 15 19 17 14
211 209 203 204 205 207 210 211 210 209 209 211 214 217 217 213 213 215 221 224 219 217 216 214 212 208 210 213 213 211 212 213 221 238 250 258 266 272 277 288 298 298 281 258 263 283 299 312 317 329 347 356 357 354 354 358 1 12 24 34 39 38 37 37 34 34 32 32 31 27 24 22 18 13 12 14 13 10 7 3 1 3 9 13 10
208 207 202 202 204 208 212 213 211 209 210 213 214 220 222 219 218 215 215 218 217 215 214 213 209 203 206 211 212 214 217 217 229 245 254 261 269 275 282 295 304 295 263 241 235 249 283 303 314 336 353 356 355 353 356 2 10 23 34 40 40 36 37 37 34 33 32 30 29 25 23 22 18 16 15 15 11 9 6 2 360 0 4 8 9
203 203 200 199 200 206 213 212 211 211 211 212 215 221 224 223 221 215 209 209 213 213 209 209 207 199 202 210 212 215 219 228 243 251 256 264 270 279 290 301 304 275 239 223 219 225 257 298 327 350 355 353 355 357 2 11 22 32 38 38 36 34 36 35 30 31 31 29 29 27 26 24 20 20 18 14 10 7 3 360 359 360 360 2 6
202 200 199 199 198 203 211 212 213 213 211 212 215 220 223 223 220 215 209 206 206 206 203 204 205 200 200 206 210 214 220 232 243 249 256 265 275 286 297 304 292 250 226 214 213 215 235 326 350 352 351 354 360 5 12 25 34 37 38 36 35 35 35 31 28 31 32 30 30 29 28 24 20 21 18 12 9 5 0 358 359 358 357 358 1
202 199 198 200 200 201 207 210 212 214 214 213 215 218 222 222 220 217 211 205 201 201 201 203 204 202 199 202 209 217 223 232 239 246 258 268 279 291 300 300 266 230 218 212 210 208 249 348 353 346 348 359 7 17 27 37 40 38 39 38 37 37 33 28 30 33 33 33 32 29 26 23 21 20 15 10 7 4 0 358 357 355 355 356 359
200 198 197 201 204 203 204 206 208 211 213 213 215 218 219 218 220 219 210 201 198 199 200 202 204 203 199 203 213 220 226 233 237 247 261 270 279 293 303 293 242 219 215 212 209 199 256 344 344 341 349 5 19 33 39 43 43 39 40 39 38 39 33 30 33 35 34 33 31 28 25 23 21 18 14 10 6 4 3 1 359 357 357 356 356
197 196 195 199 206 208 205 204 205 207 211 216 219 218 216 215 217 216 212 207 202 200 198 200 203 202 200 207 215 220 224 231 238 250 262 268 277 292 304 280 233 220 215 211 207 190 200 331 333 337 355 16 31 44 46 48 45 39 38 37 38 41 37 35 37 34 32 32 30 28 25 21 21 17 12 9 7 6 5 5 4 3 1 357 354
194 194 194 197 205 208 206 205 207 209 214 220 223 220 216 215 214 210 209 209 204 200 198 199 200 201 205 211 217 220 224 233 243 253 260 265 274 285 292 267 231 217 212 210 205 190 223 306 327 341 9 35 47 56 52 50 45 39 38 36 40 44 41 39 39 33 32 35 31 28 23 19 18 15 11 9 9 9 8 7 6 5 4 0 355
191 191 193 197 202 206 206 208 212 214 218 223 224 222 217 215 214 208 204 204 203 202 198 197 200 206 211 214 217 219 225 235 243 250 255 261 270 276 279 262 231 215 211 209 202 201 227 271 327 360 42 70 68 63 54 50 44 37 38 39 44 46 40 39 41 38 39 39 32 26 20 17 15 14 12 11 10 10 10 9 7 5 3 1 355
190 187 190 194 200 204 204 207 213 215 218 221 222 221 216 212 212 208 204 206 207 203 199 201 206 211 214 215 215 220 228 236 241 246 252 255 261 267 273 262 235 217 208 203 201 204 212 204 160 127 118 101 80 67 59 54 47 41 40 42 47 47 40 44 49 46 45 39 29 23 17 16 17 15 12 11 11 10 9 8 8 7 3 359 353
190 187 188 191 196 202 202 204 209 211 211 213 218 219 212 206 207 205 205 208 209 206 205 207 208 209 213 213 216 224 231 236 240 247 249 249 254 262 270 259 231 212 201 198 195 192 190 176 165 156 130 107 91 78 68 59 50 45 43 45 51 53 49 54 55 51 47 37 25 21 17 17 19 16 13 12 11 10 9 8 7 7 4 357 353
190 191 191 191 195 201 204 204 205 206 206 210 217 218 207 202 203 203 207 212 211 208 208 207 204 206 211 216 220 227 231 233 239 244 242 243 252 258 259 245 219 204 197 193 189 182 179 175 165 152 132 115 102 87 74 62 51 45 47 52 60 65 61 59 56 49 44 35 25 22 19 20 20 17 13 10 9 9 9 9 6 4 4 359 353
190 192 193 191 190 193 198 200 200 201 206 211 214 212 204 200 200 202 209 214 213 208 205 204 205 208 213 219 224 227 229 233 237 238 238 243 251 253 248 231 209 199 191 184 184 182 177 172 164 154 142 128 111 93 75 62 52 46 53 69 75 73 66 61 56 47 41 35 28 25 22 23 21 15 11 8 8 10 8 9 7 3 3 2 355
187 189 192 194 191 191 194 196 198 201 207 210 209 205 202 200 199 204 210 210 210 209 206 207 210 213 217 221 224 226 228 232 233 235 239 243 246 245 236 217 204 197 189 180 180 183 180 173 165 160 151 136 117 98 80 65 57 54 64 82 86 79 68 59 50 44 41 36 30 26 23 22 18 11 9 9 9 11 8 7 7 4 1 2 359
183 183 187 189 189 189 189 191 195 200 203 205 204 201 200 198 200 207 209 205 208 211 211 214 215 217 221 222 224 226 226 228 231 235 239 240 240 235 221 206 199 195 191 186 184 183 180 174 166 162 155 142 126 105 91 75 66 65 73 86 88 78 64 49 41 39 39 36 30 27 23 18 14 9 8 11 11 10 9 7 5 4 1 360 358
181 179 180 183 185 185 185 188 193 197 200 202 202 202 202 199 202 209 209 204 209 214 216 219 219 220 223 222 223 224 225 229 233 236 237 236 232 223 209 200 195 193 195 192 188 184 178 171 166 164 161 153 143 124 101 87 78 73 77 85 85 72 48 36 37 36 35 33 28 24 20 14 10 9 10 12 12 10 8 7 4 2 1 359 357
179 179 178 181 185 187 187 191 196 199 201 200 199 201 202 200 201 207 207 205 210 215 217 218 220 223 223 221 222 224 228 232 235 234 232 228 222 213 204 197 192 194 197 192 187 183 177 171 170 170 168 163 157 141 114 100 90 76 80 87 84 62 41 32 34 34 31 29 25 19 15 11 9 11 13 12 11 9 7 5 3 1 359 358 356
178 179 179 180 185 190 193 198 202 203 202 198 197 201 201 199 202 206 207 208 212 217 218 218 222 223 222 222 225 228 231 232 232 228 224 218 211 204 199 195 192 191 191 189 187 183 178 175 175 176 172 166 164 151 124 116 100 79 80 88 83 61 43 36 36 34 29 25 21 15 10 10 11 13 13 11 8 8 7 5 2 359 358 357 356
176 177 179 181 185 191 196 202 203 202 199 195 198 207 204 202 205 206 205 208 214 218 218 220 223 222 222 225 226 228 229 227 224 218 212 208 203 198 194 193 192 189 186 187 188 186 182 180 178 178 176 170 166 156 135 121 101 82 83 82 75 61 45 42 39 32 26 22 17 12 8 9 14 14 12 9 6 5 5 5 2 359 357 357 357
176 176 179 181 184 188 194 200 200 198 197 195 198 206 206 204 203 201 202 209 214 217 219 221 223 223 224 226 225 223 222 218 212 206 201 198 196 194 192 191 191 190 187 186 187 185 185 187 183 179 177 172 166 160 147 132 115 96 88 81 76 65 51 44 37 28 24 20 14 10 9 9 12 12 8 7 7 6 4 4 2 360 358 358 357
179 181 183 184 187 189 191 194 195 197 203 205 206 209 208 205 200 198 205 211 212 217 221 221 223 223 223 223 220 218 216 210 203 197 194 194 193 192 192 190 191 191 188 186 185 184 183 185 185 182 177 172 168 166 163 159 159 141 101 91 83 72 58 46 38 30 22 17 12 8 9 9 9 8 6 7 9 9 7 6 4 1 360 358 356
183 185 187 187 188 190 191 193 196 201 207 208 209 212 209 204 200 204 212 211 211 219 223 221 222 222 221 219 216 215 212 205 197 193 193 193 193 191 192 192 191 188 185 184 185 185 183 182 182 181 177 172 171 171 177 186 180 161 126 107 93 74 59 46 38 30 20 13 10 7 7 8 7 6 6 7 9 10 9 8 7 5 3 360 358
184 185 187 189 190 192 194 197 202 207 207 205 207 211 209 203 202 212 217 212 213 221 222 221 222 220 218 216 213 212 208 201 196 193 193 193 193 193 194 194 191 186 184 184 184 185 186 183 180 179 178 176 177 180 185 192 186 167 146 126 104 75 54 44 33 25 18 10 5 4 5 5 4 5 6 8 10 11 11 9 8 7 6 5 3
188 188 189 191 194 195 198 204 208 210 208 207 207 208 209 208 209 215 216 211 215 224 224 223 222 220 217 214 212 211 205 199 196 194 194 194 194 194 195 193 190 186 184 184 185 185 186 184 180 179 180 180 180 185 190 192 188 175 161 151 134 101 56 37 25 15 10 4 359 359 1 1 1 4 7 8 9 11 11 10 9 7 8 8 7
191 192 192 194 196 198 203 209 211 210 208 208 206 206 211 215 215 216 213 210 218 228 228 224 221 218 215 212 210 208 203 199 196 194 194 195 195 195 195 193 191 188 186 186 187 187 185 184 181 179 182 184 183 188 191 188 187 185 174 165 151 128 75 31 15 3 359 355 352 353 355 356 358 3 7 9 10 10 9 9 9 8 8 8 8
194 195 196 197 198 201 205 208 210 210 208 206 206 209 214 217 218 217 213 211 219 229 228 223 219 215 211 209 208 206 202 199 195 193 194 194 195 197 195 191 188 186 187 188 188 188 186 184 183 180 181 186 186 188 188 182 182 186 180 169 157 136 107 27 355 347 348 347 344 347 350 351 355 1 6 9 9 8 7 7 8 8 7 8 9
197 198 199 200 202 204 205 206 208 208 208 208 212 216 218 217 218 217 215 213 219 226 226 221 217 213 209 207 207 205 202 199 195 194 194 194 195 196 194 191 187 184 186 187 186 187 186 185 185 181 180 185 189 186 182 177 175 176 173 166 158 147 145 183 317 324 333 337 338 343 346 348 352 359 4 8 8 6 5 5 6 7 7 6 9
199 200 200 201 203 205 205 207 208 209 212 215 217 218 217 219 219 217 215 216 219 222 222 219 216 213 209 209 209 207 202 199 196 195 194 193 194 195 194 192 190 188 188 187 186 186 185 186 187 182 180 184 188 184 179 175 173 169 166 165 160 158 170 204 268 301 320 326 332 340 343 345 351 357 3 6 6 4 4 4 4 5 5 5 7
199 200 202 203 205 206 208 211 212 213 215 217 217 216 217 219 220 218 217 217 218 220 221 220 217 212 207 207 208 207 204 199 198 198 196 193 193 195 194 191 190 192 190 187 187 186 185 185 185 183 182 182 185 185 180 176 173 171 170 167 165 169 180 201 238 280 307 318 328 337 340 344 351 357 2 5 5 3 2 2 2 3 3 4 5
205 206 205 205 207 208 211 214 216 217 217 217 217 217 218 220 222 222 221 219 219 221 221 220 217 209 204 207 209 209 208 204 201 201 199 196 194 195 194 190 188 192 191 187 187 188 188 186 183 183 182 180 182 185 182 178 177 177 176 171 167 172 179 191 221 252 288 312 328 333 336 344 352 356 360 3 4 3 1 360 360 360 1 3 4
207 209 209 208 209 210 211 214 216 219 220 219 218 217 219 221 223 225 225 224 223 223 221 220 218 209 206 213 214 210 211 211 209 206 201 199 199 198 196 193 191 190 190 190 189 189 190 189 184 183 183 180 181 183 183 182 182 180 177 172 169 172 172 178 200 219 274 310 321 326 334 347 353 355 358 1 2 1 359 358 358 359 0 1 1
210 210 210 209 211 213 214 216 217 219 220 220 219 219 220 221 222 225 228 227 226 225 222 221 218 211 209 215 215 212 210 209 209 209 205 203 204 204 202 199 196 193 191 191 191 190 191 191 187 184 184 182 181 183 184 185 183 180 176 171 171 171 165 163 180 188 307 309 308 320 336 349 353 353 356 359 0 360 358 357 357 358 359 358 357
211 212 211 211 212 214 216 217 217 218 219 219 220 220 221 222 223 226 229 228 227 227 225 223 219 213 212 215 215 212 208 205 206 208 208 207 207 208 208 204 199 198 194 193 193 192 191 191 188 185 186 185 183 185 187 187 185 182 177 175 175 171 161 155 162 236 292 294 300 322 341 350 352 353 355 356 358 358 356 355 357 358 358 357 356
209 211 213 214 214 214 214 216 217 218 219 220 221 222 223 224 225 227 228 228 228 228 227 224 218 213 213 214 212 208 205 204 206 209 211 211 209 208 209 207 203 200 197 194 194 194 193 191 189 187 186 185 186 188 189 189 187 184 180 180 179 170 160 160 205 258 277 289 306 330 343 347 350 353 354 354 356 355 354 354 356 357 358 357 357
211 212 214 215 216 214 214 216 218 218 219 221 223 224 225 227 227 227 227 227 227 228 227 223 217 213 213 214 210 207 206 206 206 209 211 212 212 209 209 208 204 201 199 197 195 196 195 193 191 190 188 188 189 190 191 191 190 187 184 183 181 177 171 182 221 256 277 293 313 333 341 344 348 351 353 354 355 354 353 354 355 357 358 358 358
214 214 215 217 217 216 214 215 217 218 219 221 224 226 228 229 229 228 227 228 228 227 226 224 219 215 214 213 209 208 210 208 206 208 211 211 211 211 209 207 205 202 201 199 198 199 198 195 193 192 190 190 193 193 193 193 191 190 189 188 187 189 191 198 227 257 276 291 312 331 338 341 347 350 353 355 356 355 355 355 356 358 359 360 1
215 214 214 215 215 215 215 215 215 217 218 220 223 227 230 232 233 231 229 228 229 228 226 224 221 216 215 214 210 210 212 208 205 209 212 212 213 213 209 207 205 203 202 201 201 201 199 197 195 193 192 193 195 195 195 195 193 192 192 192 194 200 206 217 241 260 274 289 308 327 334 338 345 350 353 356 358 359 359 358 358 360 1 2 3
217 215 214 213 213 213 214 214 215 216 217 219 223 227 231 233 235 234 230 228 229 229 226 225 222 218 216 215 213 213 212 208 206 209 212 214 217 217 212 208 206 205 202 202 203 203 202 199 196 194 194 195 197 197 199 199 197 195 196 197 200 209 217 229 253 270 280 289 300 316 327 333 340 347 352 355 357 360 1 0 360 1 2 4 5
218 217 214 214 214 214 215 216 217 218 219 219 221 226 229 232 234 234 232 229 229 229 226 225 223 221 219 216 215 215 214 210 208 210 213 215 218 218 214 210 210 210 207 205 204 205 205 203 199 197 198 199 200 202 204 203 202 201 203 205 208 215 225 238 261 277 283 288 295 306 317 323 332 341 347 351 356 359 1 2 2 2 3 4 4
219 218 217 217 218 218 218 220 221 221 221 220 220 223 228 232 235 236 234 231 230 229 227 225 224 223 221 217 216 218 217 211 208 211 214 217 219 219 215 213 214 215 215 213 212 209 208 205 202 202 204 206 205 206 206 209 211 212 212 215 220 227 236 245 258 270 277 283 290 298 306 313 322 331 338 346 352 356 1 5 6 4 4 5 5
220 218 217 218 220 222 222 222 223 222 222 221 221 222 227 231 235 237 237 234 231 230 227 224 224 224 223 220 218 217 215 210 209 211 213 215 217 219 218 217 217 215 213 214 216 216 213 209 207 208 210 211 209 204 205 213 219 220 221 225 229 238 248 255 261 266 270 276 283 289 295 302 310 320 330 340 347 353 359 4 7 7 6 6 7
219 216 216 217 218 221 223 224 224 224 223 223 223 224 228 232 235 238 239 236 234 232 229 226 225 226 225 222 220 218 215 211 211 213 214 214 213 213 214 215 215 213 210 210 213 214 213 214 217 217 213 209 205 203 207 216 223 226 229 233 236 242 251 258 261 264 266 272 279 284 288 294 302 311 322 331 339 347 353 356 1 5 5 4 4
Height
1503 1504 1505 1507 1509 1511 1514 1516 1517 1519 1521 1522 1523 1524 1527 1529 1530 1531 1533 1535 1537 1538 1538 1540 1541 1542 1544 1545 1546 1547 1548 1549 1550 1551 1552 1553 1554 1554 1555 1556 1557 1558 1559 1560 1560 1560 1560 1561 1561 1560 1560 1559 1558 1557 1556 1556 1555 1555 1554 1554 1554 1554 1554 1554 1554 1553 1552 1552 1551 1550 1550 1550 1549 1549 1548 1548 1547 1547 1547 1546 1545 1544 1543 1541 1540
1502 1503 1505 1506 1508 1510 1512 1514 1516 1517 1518 1519 1521 1523 1526 1528 1529 1530 1532 1534 1536 1537 1538 1539 1541 1542 1543 1544 1545 1546 1548 1549 1550 1551 1552 1553 1554 1554 1555 1556 1557 1558 1559 1559 1559 1560 1560 1560 1560 1560 1559 1558 1557 1556 1555 1555 1554 1554 1553 1553 1553 1553 1553 1553 1553 1553 1552 1552 1551 1550 1549 1549 1549 1549 1549 1548 1547 1547 1546 1545 1544 1544 1542 1541 1540
1501 1502 1504 1505 1507 1509 1511 1513 1515 1516 1516 1517 1520 1522 1525 1527 1528 1530 1531 1533 1535 1536 1538 1539 1541 1542 1543 1544 1545 1546 1547 1548 1550 1551 1552 1553 1554 1554 1555 1556 1557 1558 1558 1558 1559 1559 1560 1560 1559 1559 1558 1557 1556 1555 1554 1554 1553 1553 1553 1553 1552 1552 1552 1551 1551 1551 1551 1551 1550 1549 1549 1548 1548 1549 1549 1548 1547 1547 1546 1545 1544 1543 1542 1541 1540
1499 1500 1503 1504 1505 1508 1510 1512 1514 1515 1516 1517 1519 1522 1524 1525 1527 1529 1531 1533 1535 1537 1538 1540 1541 1542 1543 1544 1545 1546 1547 1548 1549 1551 1552 1553 1554 1555 1556 1556 1557 1557 1557 1558 1558 1558 1559 1559 1558 1558 1557 1556 1556 1555 1554 1553 1553 1552 1552 1552 1551 1551 1551 1550 1550 1550 1550 1550 1549 1549 1548 1548 1548 1549 1549 1548 1547 1547 1546 1545 1544 1543 1542 1541 1540
1498 1499 1501 1503 1504 1507 1509 1511 1513 1514 1516 1517 1519 1521 1522 1524 1526 1529 1531 1533 1536 1537 1538 1539 1540 1541 1543 1543 1544 1545 1547 1548 1549 1551 1552 1553 1554 1555 1556 1556 1556 1557 1557 1557 1557 1558 1558 1558 1558 1557 1556 1556 1555 1555 1554 1554 1553 1552 1552 1551 1551 1550 1550 1550 1550 1550 1550 1549 1548 1547 1547 1547 1548 1548 1548 1548 1548 1547 1547 1546 1545 1544 1543 1542 1540
1497 1498 1499 1501 1503 1506 1508 1510 1511 1513 1515 1517 1519 1520 1522 1524 1527 1530 1532 1534 1536 1537 1538 1538 1540 1541 1542 1543 1544 1544 1546 1548 1549 1551 1552 1553 1554 1555 1555 1556 1556 1556 1556 1556 1556 1556 1557 1557 1557 1556 1556 1556 1555 1555 1554 1554 1553 1552 1551 1551 1551 1550 1550 1550 1549 1549 1549 1549 1548 1547 1547 1547 1547 1547 1547 1547 1548 1548 1548 1547 1546 1544 1543 1542 1541
1496 1497 1499 1501 1503 1505 1506 1508 1510 1512 1515 1516 1518 1520 1522 1525 1528 1531 1532 1535 1536 1536 1537 1538 1539 1540 1541 1543 1544 1544 1546 1547 1549 1550 1551 1553 1554 1554 1555 1555 1555 1555 1555 1555 1555 1555 1556 1556 1556 1556 1556 1555 1555 1555 1554 1553 1552 1552 1551 1551 1551 1550 1550 1550 1549 1549 1548 1548 1547 1547 1547 1547 1547 1547 1546 1546 1547 1548 1548 1548 1546 1545 1543 1542 1540
1494 1496 1498 1500 1502 1504 1505 1507 1510 1512 1514 1516 1518 1520 1522 1525 1528 1531 1532 1535 1536 1535 1536 1537 1538 1540 1541 1543 1544 1545 1546 1548 1549 1550 1551 1552 1553 1554 1554 1555 1555 1555 1554 1554 1554 1555 1555 1555 1555 1555 1555 1555 1555 1555 1554 1553 1552 1552 1552 1551 1551 1551 1550 1550 1549 1549 1549 1548 1548 1548 1547 1547 1547 1547 1546 1546 1546 1546 1546 1546 1546 1545 1543 1541 1540
1492 1494 1497 1499 1501 1503 1505 1507 1509 1512 1514 1515 1517 1519 1522 1525 1527 1529 1531 1533 1534 1534 1535 1537 1538 1540 1541 1542 1543 1545 1546 1548 1549 1550 1551 1552 1553 1553 1554 1554 1554 1554 1553 1553 1553 1554 1554 1554 1555 1555 1555 1555 1554 1554 1554 1553 1553 1552 1552 1552 1551 1551 1550 1550 1550 1550 1549 1549 1549 1549 1548 1548 1548 1548 1548 1547 1546 1545 1544 1544 1543 1543 1543 1541 1540
1491 1493 1496 1498 1500 1502 1504 1507 1509 1511 1513 1514 1516 1519 1521 1523 1525 1527 1529 1532 1533 1533 1534 1536 1537 1539 1540 1542 1543 1545 1546 1547 1549 1550 1551 1551 1552 1552 1553 1553 1553 1553 1553 1553 1553 1554 1554 1554 1554 1555 1555 1555 1554 1554 1554 1553 1553 1553 1552 1552 1551 1551 1550 1550 1551 1550 1550 1550 1550 1550 1550 1549 1549 1549 1548 1547 1547 1546 1546 1544 1543 1543 1542 1541 1540
1489 1491 1494 1497 1499 1501 1503 1506 1508 1510 1512 1513 1516 1518 1520 1522 1524 1526 1529 1531 1532 1533 1534 1536 1537 1538 1540 1542 1543 1545 1546 1547 1548 1549 1550 1551 1551 1552 1552 1552 1552 1552 1552 1553 1554 1554 1554 1554 1554 1555 1555 1555 1555 1554 1554 1553 1553 1552 1552 1552 1551 1551 1551 1551 1551 1551 1551 1551 1551 1550 1550 1550 1549 1549 1548 1548 1547 1547 1546 1545 1544 1543 1542 1541 1540
1487 1489 1492 1495 1497 1499 1501 1503 1506 1508 1510 1512 1515 1517 1519 1521 1523 1524 1528 1529 1530 1532 1534 1535 1537 1538 1540 1542 1544 1545 1546 1547 1548 1549 1550 1550 1551 1551 1551 1551 1551 1552 1552 1553 1554 1554 1554 1554 1554 1555 1555 1555 1555 1554 1554 1553 1553 1552 1552 1552 1551 1551 1551 1552 1552 1551 1551 1551 1551 1551 1550 1550 1550 1549 1549 1548 1548 1547 1546 1546 1544 1543 1542 1541 1540
1485 1487 1489 1492 1495 1497 1499 1502 1504 1506 1509 1511 1513 1516 1518 1520 1521 1524 1527 1528 1529 1531 1533 1535 1536 1538 1540 1542 1543 1545 1545 1546 1547 1548 1549 1550 1550 1551 1551 1551 1551 1552 1552 1552 1553 1553 1554 1554 1554 1555 1555 1555 1555 1554 1554 1553 1553 1553 1552 1552 1552 1552 1552 1552 1552 1551 1551 1551 1551 1551 1551 1551 1550 1550 1550 1549 1549 1548 1547 1545 1544 1543 1542 1541 1540
1482 1484 1486 1490 1493 1495 1498 1501 1503 1505 1508 1510 1512 1514 1517 1519 1520 1523 1526 1527 1528 1530 1532 1534 1536 1537 1539 1541 1543 1544 1545 1545 1547 1548 1549 1549 1550 1550 1550 1550 1551 1551 1552 1552 1553 1553 1554 1554 1555 1555 1556 1556 1555 1555 1554 1554 1554 1554 1553 1553 1552 1552 1552 1552 1552 1552 1551 1551 1551 1552 1551 1551 1551 1551 1550 1550 1549 1548 1546 1545 1544 1543 1541 1540 1538
1480 1482 1485 1488 1491 1494 1497 1499 1502 1504 1506 1509 1511 1513 1516 1518 1520 1522 1524 1526 1527 1529 1531 1533 1535 1537 1539 1541 1542 1544 1544 1545 1547 1548 1548 1549 1549 1549 1550 1550 1551 1551 1552 1552 1553 1553 1554 1555 1555 1556 1556 1556 1555 1555 1555 1554 1555 1554 1554 1554 1553 1553 1553 1552 1552 1552 1552 1552 1552 1552 1552 1551 1551 1551 1550 1550 1549 1548 1546 1545 1543 1541 1540 1538 1537
1478 1480 1483 1486 1490 1493 1495 1498 1501 1503 1505 1507 1510 1512 1515 1517 1519 1521 1523 1524 1526 1528 1531 1533 1535 1536 1538 1540 1541 1542 1544 1545 1546 1547 1548 1548 1549 1549 1550 1550 1551 1551 1552 1552 1553 1554 1555 1555 1556 1556 1556 1556 1556 1555 1556 1555 1555 1555 1554 1554 1553 1553 1553 1553 1553 1553 1552 1552 1552 1552 1552 1551 1551 1551 1551 1550 1549 1548 1547 1545 1544 1542 1540 1538 1536
1475 1478 1481 1484 1488 1491 1494 1496 1499 1502 1504 1506 1508 1511 1514 1516 1518 1521 1522 1524 1526 1528 1530 1532 1534 1536 1537 1539 1541 1542 1544 1545 1546 1547 1547 1548 1548 1549 1550 1550 1551 1551 1552 1553 1553 1554 1555 1555 1556 1556 1556 1556 1556 1556 1556 1556 1556 1555 1555 1554 1554 1554 1554 1554 1553 1553 1553 1553 1553 1552 1552 1552 1551 1551 1551 1550 1550 1548 1547 1545 1544 1542 1541 1539 1537
1473 1476 1479 1482 1486 1490 1492 1495 1498 1501 1503 1505 1507 1510 1513 1515 1517 1520 1522 1523 1525 1527 1529 1531 1533 1535 1537 1538 1540 1542 1543 1544 1545 1546 1546 1547 1548 1549 1550 1550 1550 1551 1552 1553 1554 1554 1555 1555 1556 1556 1556 1557 1557 1557 1557 1557 1556 1556 1555 1555 1555 1555 1555 1554 1554 1554 1554 1553 1553 1553 1552 1552 1552 1552 1551 1551 1550 1548 1547 1546 1544 1543 1542 1540 1539
1471 1474 1477 1480 1484 1488 1490 1493 1497 1500 1502 1504 1506 1509 1512 1514 1517 1519 1522 1523 1525 1527 1529 1531 1532 1534 1536 1538 1540 1542 1543 1544 1544 1545 1546 1547 1548 1549 1549 1550 1550 1551 1553 1553 1554 1555 1555 1555 1556 1556 1557 1557 1557 1557 1557 1557 1557 1557 1556 1555 1555 1555 1556 1555 1555 1555 1554 1554 1554 1554 1553 1553 1553 1552 1552 1551 1550 1549 1548 1546 1545 1544 1542 1540 1539
1468 1472 1475 1478 1482 1486 1489 1492 1495 1499 1502 1503 1506 1508 1510 1513 1516 1519 1521 1523 1525 1526 1528 1530 1531 1533 1536 1538 1540 1541 1542 1543 1543 1544 1545 1546 1548 1548 1549 1550 1550 1552 1553 1553 1554 1554 1555 1555 1556 1557 1557 1557 1558 1558 1558 1558 1558 1557 1557 1556 1556 1556 1556 1556 1556 1555 1555 1555 1555 1554 1554 1553 1553 1553 1552 1551 1550 1549 1548 1547 1545 1544 1542 1540 1538
1466 1470 1474 1477 1480 1484 1488 1491 1494 1498 1501 1503 1505 1508 1510 1513 1515 1518 1520 1522 1524 1526 1527 1529 1531 1533 1535 1537 1539 1540 1541 1542 1542 1543 1545 1546 1547 1548 1548 1550 1551 1552 1553 1553 1554 1554 1555 1556 1556 1557 1558 1558 1558 1558 1558 1558 1558 1558 1557 1557 1557 1557 1557 1556 1556 1556 1556 1556 1555 1555 1554 1554 1554 1553 1552 1551 1550 1549 1548 1547 1545 1543 1542 1540 1537
1463 1467 1472 1476 1478 1481 1486 1489 1493 1496 1499 1502 1504 1507 1509 1512 1515 1517 1519 1521 1523 1525 1527 1528 1531 1532 1535 1536 1538 1539 1540 1540 1541 1542 1544 1545 1546 1547 1548 1549 1551 1552 1552 1553 1554 1554 1555 1556 1557 1557 1558 1558 1559 1559 1559 1559 1559 1558 1558 1558 1558 1557 1557 1557 1557 1557 1557 1556 1556 1555 1555 1554 1554 1553 1552 1551 1550 1549 1548 1546 1545 1543 1541 1540 1537
1462 1466 1470 1475 1477 1480 1484 1487 1491 1494 1498 1501 1503 1505 1508 1511 1514 1516 1518 1521 1522 1524 1526 1528 1530 1532 1533 1535 1536 1538 1539 1539 1540 1542 1543 1545 1546 1547 1548 1549 1550 1551 1552 1553 1553 1554 1555 1556 1557 1558 1558 1559 1559 1559 1559 1559 1559 1559 1559 1558 1558 1558 1558 1558 1558 1558 1557 1557 1556 1556 1555 1554 1554 1553 1553 1552 1550 1549 1547 1546 1544 1543 1540 1539 1538
1462 1465 1469 1474 1476 1479 1482 1485 1489 1492 1496 1500 1502 1505 1507 1510 1513 1515 1517 1520 1522 1524 1526 1527 1529 1531 1532 1534 1535 1536 1538 1538 1540 1541 1542 1544 1545 1547 1548 1549 1550 1551 1552 1552 1553 1554 1555 1556 1557 1558 1558 1559 1559 1559 1559 1559 1559 1559 1559 1559 1559 1558 1559 1559 1558 1558 1558 1557 1557 1556 1555 1555 1554 1554 1553 1551 1550 1548 1547 1545 1543 1542 1540 1538 1537
1461 1464 1467 1471 1474 1478 1481 1484 1487 1490 1494 1498 1500 1503 1506 1509 1511 1514 1516 1519 1521 1523 1525 1526 1528 1530 1531 1533 1534 1535 1536 1537 1539 1540 1542 1544 1545 1546 1547 1548 1550 1551 1551 1552 1553 1554 1555 1556 1557 1558 1558 1559 1559 1559 1560 1559 1559 1559 1559 1559 1559 1559 1559 1559 1559 1558 1558 1558 1557 1556 1556 1555 1554 1554 1552 1551 1550 1548 1546 1545 1543 1541 1540 1538 1536
1459 1463 1466 1469 1473 1476 1480 1483 1486 1489 1492 1496 1498 1501 1505 1507 1510 1513 1515 1518 1520 1522 1524 1526 1527 1529 1530 1531 1532 1534 1535 1537 1538 1540 1541 1543 1544 1545 1547 1548 1549 1550 1551 1552 1553 1554 1555 1556 1557 1558 1558 1559 1559 1559 1559 1559 1559 1559 1560 1560 1560 1559 1559 1559 1559 1559 1558 1558 1557 1556 1556 1555 1554 1553 1552 1550 1549 1548 1546 1544 1543 1541 1539 1537 1535
1458 1461 1464 1468 1471 1475 1479 1482 1485 1488 1491 1494 1497 1500 1503 1506 1509 1512 1514 1517 1519 1521 1522 1524 1526 1527 1528 1530 1531 1533 1534 1535 1537 1538 1540 1541 1543 1545 1546 1548 1549 1550 1551 1552 1553 1554 1555 1556 1557 1557 1558 1558 1559 1559 1559 1559 1559 1559 1560 1560 1560 1560 1560 1559 1559 1559 1558 1558 1558 1557 1556 1556 1555 1553 1551 1550 1549 1547 1546 1545 1543 1541 1539 1537 1534
1457 1460 1463 1466 1470 1473 1477 1480 1483 1486 1489 1492 1495 1499 1502 1504 1507 1510 1512 1515 1517 1519 1521 1523 1524 1526 1527 1528 1530 1531 1533 1534 1536 1537 1539 1540 1542 1544 1546 1547 1548 1549 1550 1551 1552 1553 1554 1555 1556 1557 1558 1558 1558 1558 1559 1559 1559 1560 1560 1560 1560 1560 1560 1560 1559 1559 1559 1558 1558 1558 1557 1556 1555 1553 1552 1551 1549 1548 1546 1545 1543 1541 1538 1536 1533
1457 1460 1462 1465 1468 1471 1474 1478 1481 1484 1487 1490 1493 1497 1500 1502 1504 1507 1511 1513 1515 1517 1519 1521 1522 1524 1525 1527 1528 1530 1531 1532 1534 1535 1537 1539 1541 1543 1544 1546 1547 1548 1549 1551 1552 1553 1554 1555 1556 1557 1557 1558 1558 1558 1558 1559 1559 1560 1560 1560 1560 1560 1560 1560 1560 1559 1559 1559 1558 1558 1557 1556 1554 1554 1553 1552 1550 1549 1547 1545 1543 1541 1538 1535 1533
1454 1457 1460 1463 1466 1469 1472 1476 1478 1482 1486 1489 1492 1495 1497 1499 1502 1505 1508 1511 1513 1516 1517 1519 1521 1522 1524 1525 1526 1528 1529 1531 1532 1534 1536 1538 1540 1542 1543 1545 1546 1547 1549 1550 1552 1553 1554 1555 1555 1556 1557 1557 1557 1558 1558 1559 1559 1560 1560 1560 1560 1560 1560 1560 1560 1560 1560 1559 1559 1558 1557 1556 1555 1554 1553 1552 1551 1550 1548 1546 1544 1541 1538 1535 1532
1451 1455 1458 1462 1465 1468 1471 1473 1476 1479 1483 1487 1490 1493 1496 1498 1500 1503 1506 1509 1512 1514 1515 1517 1519 1520 1521 1523 1524 1526 1527 1529 1531 1533 1535 1537 1539 1540 1542 1544 1545 1546 1548 1549 1551 1552 1553 1554 1555 1555 1556 1556 1557 1557 1558 1559 1559 1560 1560 1560 1560 1561 1561 1560 1560 1560 1560 1560 1559 1558 1557 1557 1556 1555 1554 1553 1552 1551 1549 1547 1545 1543 1540 1536 1533
1450 1453 1456 1460 1463 1465 1468 1471 1473 1477 1481 1484 1488 1491 1494 1497 1499 1502 1505 1508 1510 1512 1513 1515 1517 1518 1519 1521 1522 1524 1526 1527 1529 1531 1533 1536 1538 1539 1541 1543 1544 1546 1547 1548 1550 1551 1552 1553 1554 1555 1556 1556 1557 1557 1558 1559 1559 1559 1560 1560 1560 1560 1561 1561 1561 1561 1561 1560 1559 1559 1558 1557 1556 1555 1554 1553 1552 1551 1549 1547 1546 1544 1541 1538 1535
1447 1450 1453 1456 1459 1462 1465 1468 1472 1475 1479 1482 1485 1488 1492 1495 1498 1501 1504 1506 1508 1510 1512 1513 1515 1516 1517 1519 1521 1522 1524 1526 1528 1530 1532 1535 1537 1539 1540 1542 1543 1544 1546 1547 1549 1550 1551 1552 1553 1554 1555 1556 1556 1557 1558 1558 1559 1559 1559 1560 1560 1561 1561 1561 1561 1561 1561 1560 1559 1559 1558 1557 1557 1556 1555 1554 1552 1551 1549 1548 1546 1544 1542 1539 1536
1446 1449 1451 1455 1458 1462 1465 1468 1471 1474 1477 1481 1484 1487 1491 1494 1497 1500 1502 1504 1506 1508 1509 1511 1512 1514 1515 1517 1519 1520 1522 1524 1526 1528 1531 1533 1536 1538 1539 1541 1542 1543 1545 1546 1547 1549 1550 1551 1552 1554 1554 1555 1556 1557 1558 1558 1558 1559 1559 1560 1560 1561 1561 1561 1561 1561 1561 1560 1559 1559 1558 1558 1557 1556 1555 1554 1552 1550 1549 1547 1545 1543 1541 1539 1536
1444 1447 1451 1454 1457 1460 1463 1465 1469 1472 1476 1479 1483 1486 1490 1493 1496 1498 1499 1501 1503 1505 1507 1508 1510 1511 1513 1514 1516 1518 1520 1522 1524 1527 1529 1532 1534 1536 1538 1539 1541 1542 1544 1545 1546 1548 1549 1550 1552 1553 1554 1555 1556 1557 1557 1558 1558 1558 1559 1560 1560 1560 1561 1561 1561 1561 1560 1560 1559 1559 1558 1558 1557 1556 1555 1554 1552 1550 1548 1547 1545 1543 1540 1538 1535
1439 1442 1446 1449 1452 1456 1459 1462 1466 1470 1474 1477 1481 1485 1488 1491 1493 1495 1497 1499 1501 1502 1503 1505 1507 1508 1510 1512 1514 1516 1518 1520 1522 1524 1527 1530 1532 1534 1536 1538 1540 1541 1542 1543 1545 1547 1548 1550 1551 1552 1553 1554 1555 1556 1557 1557 1557 1558 1558 1559 1560 1560 1560 1561 1561 1560 1560 1560 1559 1559 1558 1558 1557 1556 1555 1554 1552 1550 1548 1546 1544 1542 1540 1538 1535
1439 1443 1446 1450 1453 1456 1460 1463 1466 1469 1472 1476 1480 1484 1486 1488 1491 1493 1494 1496 1498 1499 1501 1502 1504 1506 1507 1510 1511 1513 1516 1518 1520 1523 1525 1527 1530 1532 1535 1537 1538 1540 1541 1542 1544 1546 1547 1549 1550 1551 1552 1553 1554 1555 1556 1556 1557 1557 1558 1558 1559 1559 1560 1560 1560 1560 1560 1559 1559 1558 1558 1558 1557 1556 1555 1553 1552 1550 1548 1546 1544 1542 1539 1537 1534
1440 1444 1447 1451 1454 1457 1460 1462 1465 1468 1471 1474 1478 1482 1484 1486 1488 1490 1492 1493 1495 1497 1499 1500 1502 1503 1506 1508 1511 1513 1515 1517 1519 1521 1524 1526 1528 1531 1533 1535 1537 1539 1540 1541 1543 1545 1546 1548 1549 1551 1552 1553 1554 1554 1555 1556 1556 1557 1557 1558 1558 1559 1559 1559 1560 1559 1559 1559 1558 1558 1558 1557 1556 1555 1554 1553 1551 1549 1547 1545 1543 1541 1538 1535 1532
1439 1441 1444 1448 1452 1455 1458 1461 1463 1466 1469 1473 1476 1479 1481 1483 1486 1488 1489 1491 1493 1495 1497 1499 1500 1502 1506 1511 1513 1516 1518 1519 1520 1521 1523 1525 1527 1529 1532 1534 1536 1538 1539 1541 1542 1544 1545 1547 1548 1550 1551 1551 1553 1554 1554 1555 1556 1556 1557 1557 1558 1558 1558 1559 1559 1559 1558 1558 1558 1558 1558 1557 1556 1555 1554 1552 1551 1549 1547 1545 1542 1540 1537 1534 1531
1437 1440 1443 1446 1449 1453 1456 1458 1461 1464 1467 1470 1474 1477 1479 1481 1484 1486 1487 1489 1491 1493 1495 1498 1499 1502 1507 1510 1512 1514 1517 1519 1521 1522 1524 1525 1526 1528 1531 1533 1535 1536 1538 1540 1541 1543 1545 1546 1547 1549 1550 1550 1551 1553 1554 1555 1555 1556 1556 1557 1557 1558 1558 1558 1558 1558 1558 1558 1558 1558 1557 1556 1556 1554 1553 1552 1550 1549 1547 1544 1542 1539 1536 1533 1531
1436 1438 1442 1445 1447 1450 1453 1455 1458 1461 1465 1468 1471 1474 1477 1479 1481 1483 1485 1488 1490 1492 1493 1496 1498 1502 1505 1508 1509 1511 1513 1516 1519 1522 1524 1525 1526 1528 1529 1531 1533 1535 1536 1538 1540 1542 1543 1545 1546 1547 1548 1549 1550 1551 1553 1554 1555 1555 1556 1556 1556 1557 1557 1557 1557 1557 1557 1557 1558 1557 1557 1556 1555 1554 1553 1551 1550 1548 1547 1544 1542 1539 1536 1534 1531
1435 1437 1440 1442 1445 1448 1451 1454 1457 1460 1463 1466 1469 1472 1474 1476 1479 1481 1483 1486 1488 1490 1492 1494 1497 1501 1504 1505 1507 1509 1511 1514 1517 1520 1523 1524 1525 1527 1528 1530 1532 1534 1535 1537 1538 1540 1542 1544 1545 1546 1547 1548 1549 1550 1552 1553 1554 1554 1555 1555 1556 1556 1556 1556 1556 1556 1557 1557 1557 1557 1556 1556 1555 1553 1552 1551 1549 1548 1546 1545 1542 1540 1537 1535 1532
1432 1435 1437 1440 1443 1446 1449 1453 1456 1458 1461 1464 1467 1470 1472 1474 1476 1479 1482 1484 1486 1488 1490 1493 1496 1499 1502 1503 1505 1507 1510 1513 1516 1518 1521 1522 1524 1525 1527 1528 1530 1532 1534 1536 1537 1539 1541 1543 1544 1545 1546 1547 1548 1549 1551 1552 1552 1553 1554 1554 1555 1555 1555 1555 1556 1556 1556 1556 1556 1556 1555 1555 1554 1553 1552 1550 1549 1547 1546 1544 1542 1540 1537 1535 1532
1430 1433 1436 1439 1442 1445 1448 1451 1454 1457 1459 1463 1465 1468 1470 1472 1474 1477 1479 1481 1484 1486 1489 1491 1494 1497 1500 1502 1504 1506 1508 1510 1513 1516 1518 1520 1522 1523 1525 1526 1529 1530 1532 1534 1535 1537 1539 1541 1543 1544 1545 1546 1547 1548 1549 1550 1551 1552 1553 1553 1554 1554 1554 1555 1555 1555 1556 1556 1555 1555 1555 1554 1553 1552 1551 1550 1548 1547 1545 1544 1542 1539 1537 1534 1532
1430 1432 1435 1437 1440 1443 1446 1449 1452 1455 1458 1461 1464 1466 1468 1470 1473 1475 1477 1479 1482 1484 1487 1489 1492 1495 1497 1500 1502 1504 1505 1508 1510 1513 1515 1517 1519 1521 1523 1524 1526 1528 1530 1532 1534 1536 1538 1540 1541 1543 1543 1545 1546 1547 1548 1549 1550 1551 1552 1552 1553 1553 1553 1554 1554 1554 1555 1555 1555 1554 1554 1554 1553 1552 1551 1549 1548 1546 1545 1543 1541 1539 1536 1534 1531
1429 1431 1433 1436 1439 1442 1445 1448 1450 1453 1456 1460 1463 1465 1467 1469 1471 1473 1475 1478 1480 1482 1485 1487 1490 1492 1495 1497 1499 1501 1503 1505 1508 1511 1513 1515 1517 1519 1521 1522 1524 1527 1529 1530 1532 1534 1536 1538 1540 1541 1542 1543 1545 1546 1547 1548 1549 1550 1550 1551 1552 1552 1552 1553 1553 1554 1554 1554 1554 1553 1553 1553 1552 1551 1550 1549 1547 1546 1544 1542 1540 1538 1536 1534 1531
1428 1430 1433 1435 1438 1441 1443 1446 1449 1452 1455 1458 1462 1464 1466 1468 1469 1471 1473 1476 1478 1480 1483 1485 1488 1490 1493 1495 1497 1499 1501 1503 1506 1508 1511 1513 1515 1517 1519 1520 1522 1524 1526 1528 1530 1532 1534 1536 1538 1540 1541 1542 1543 1545 1546 1547 1548 1548 1549 1550 1550 1551 1551 1552 1552 1552 1553 1553 1553 1552 1552 1552 1551 1551 1550 1548 1547 1545 1544 1542 1540 1538 1536 1534 1531
1428 1430 1433 1435 1437 1439 1442 1444 1447 1450 1453 1457 1460 1462 1464 1466 1467 1469 1472 1474 1476 1478 1481 1484 1486 1488 1490 1493 1495 1497 1499 1501 1504 1507 1509 1511 1513 1515 1517 1518 1520 1522 1523 1525 1528 1530 1532 1535 1537 1538 1540 1541 1542 1543 1544 1546 1546 1547 1548 1548 1549 1550 1550 1550 1551 1551 1551 1552 1551 1551 1551 1551 1551 1550 1549 1548 1547 1545 1543 1542 1540 1538 1536 1534 1531
1427 1430 1432 1435 1437 1439 1441 1443 1446 1449 1451 1455 1458 1461 1462 1464 1466 1468 1470 1472 1474 1477 1479 1482 1484 1486 1488 1491 1493 1495 1497 1499 1502 1505 1507 1510 1512 1514 1516 1518 1520 1521 1523 1525 1527 1529 1531 1534 1536 1537 1539 1540 1541 1542 1544 1545 1545 1546 1546 1547 1548 1548 1549 1549 1549 1550 1550 1550 1550 1550 1550 1550 1549 1549 1548 1547 1546 1544 1543 1541 1539 1537 1536 1533 1531
1427 1430 1432 1434 1437 1439 1441 1443 1445 1448 1451 1454 1456 1459 1461 1463 1465 1466 1468 1471 1473 1475 1477 1480 1482 1484 1486 1489 1491 1493 1495 1497 1500 1503 1506 1508 1510 1513 1515 1517 1519 1521 1523 1525 1527 1529 1531 1533 1535 1537 1538 1539 1541 1542 1543 1543 1543 1544 1545 1546 1546 1547 1547 1547 1548 1548 1549 1549 1549 1549 1548 1548 1548 1548 1547 1546 1545 1543 1542 1540 1539 1537 1535 1533 1531
1427 1429 1431 1434 1436 1438 1441 1443 1445 1447 1450 1452 1455 1457 1459 1461 1463 1465 1467 1469 1471 1473 1475 1477 1480 1482 1484 1487 1489 1491 1493 1495 1498 1500 1503 1505 1508 1511 1513 1515 1518 1520 1522 1524 1526 1529 1531 1532 1534 1536 1537 1538 1540 1541 1541 1541 1542 1543 1544 1544 1545 1545 1546 1546 1546 1546 1547 1547 1547 1547 1547 1547 1546 1546 1545 1545 1544 1542 1541 1539 1538 1537 1535 1533 1531